Wind_Speed
21 22 22 21 22 21 21 21 20 18 17 16 16 15 14 14 13 13 12 12 12 12 12 12 12 12 12 12 13 13 13 12 13 13 12 12 12 12 13 13 13 14 13 14
21 22 23 23 22 22 22 21 20 19 17 17 17 16 16 15 14 14 13 13 13 13 13 13 13 12 12 12 12 13 13 13 13 13 13 13 13 13 13 14 14 14 15 15
21 21 23 23 22 21 21 21 21 20 18 18 18 17 17 16 15 15 15 14 13 13 14 14 14 13 13 13 13 13 13 13 13 13 13 12 12 13 13 14 14 15 15 15
21 21 22 21 21 21 21 21 21 20 20 20 19 18 17 17 16 16 15 15 14 14 14 14 14 14 14 14 14 14 14 14 14 14 13 13 13 13 13 13 14 15 16 16
22 22 22 21 21 21 21 21 21 21 21 22 21 19 18 17 17 16 16 15 15 15 15 15 15 15 14 14 14 14 14 14 14 14 14 14 14 14 14 14 15 15 16 17
23 23 22 21 21 21 21 21 21 22 22 22 21 20 19 18 18 17 16 16 16 16 16 16 16 16 15 15 15 15 15 15 15 15 15 15 16 15 15 16 16 16 16 18
23 23 22 22 21 21 21 21 22 23 22 22 22 21 20 19 19 18 17 17 17 16 16 16 16 17 17 16 16 16 16 16 16 16 16 16 17 17 16 16 16 17 18 19
24 24 23 22 21 21 21 21 22 23 23 23 22 22 22 21 20 19 18 18 17 17 17 17 17 18 18 17 17 17 17 17 17 17 17 18 18 18 18 18 18 18 19 19
25 24 23 22 22 22 22 22 21 21 23 24 23 23 22 22 21 20 20 19 19 18 18 18 18 18 19 18 18 17 17 18 18 18 18 18 18 18 18 19 19 19 19 20
25 24 24 23 23 23 23 22 22 21 21 22 22 22 22 22 22 21 21 20 20 20 19 19 19 19 19 19 19 18 18 18 18 18 18 19 19 19 20 20 21 21 21 21
25 23 23 23 23 23 23 23 23 22 22 22 22 22 22 23 23 23 22 21 21 21 20 20 20 20 20 20 20 20 19 19 19 19 19 19 20 20 21 21 22 22 22 22
25 24 23 23 23 24 24 24 24 24 24 24 24 23 23 24 24 24 24 23 22 22 22 21 21 21 21 21 21 21 21 21 21 21 21 21 21 22 22 22 23 23 23 23
25 25 24 24 25 25 25 25 25 25 25 25 25 24 24 24 25 25 25 25 25 24 24 23 23 22 22 22 23 23 23 23 23 23 23 23 23 23 24 24 25 25 25 25
25 25 25 25 25 26 26 26 26 26 26 27 27 26 26 26 26 26 26 26 26 26 25 24 24 24 24 24 24 24 24 24 24 25 25 25 25 25 25 26 26 27 27 27
27 26 26 26 26 26 27 27 27 27 28 28 29 29 28 28 27 27 27 27 27 27 27 26 26 26 26 26 26 26 26 26 26 27 27 27 27 27 27 28 28 28 28 28
28 28 27 27 26 27 28 27 28 28 29 29 30 30 30 29 29 29 29 29 28 28 28 28 27 27 28 28 28 28 28 28 28 28 28 28 29 29 29 29 29 29 29 29
29 29 29 29 28 27 28 28 29 29 29 30 32 32 32 31 31 31 31 31 31 30 30 30 30 29 29 29 30 30 30 30 30 30 30 30 30 30 30 30 30 30 31 31
29 30 30 30 29 29 29 29 29 29 30 30 31 32 33 32 32 32 32 33 33 32 32 32 32 32 31 31 32 32 32 31 31 31 32 32 32 32 31 31 31 31 32 31
29 29 29 30 30 30 29 29 30 30 31 31 31 31 32 33 33 34 34 34 33 33 34 33 33 33 33 33 33 33 33 33 33 33 33 33 32 32 32 32 33 32 32 33
29 29 29 30 30 30 30 30 30 31 32 32 32 32 32 33 34 34 34 34 34 34 34 35 35 35 34 34 34 34 34 34 34 34 34 34 33 33 33 33 33 33 34 34
31 31 30 30 30 30 31 31 31 32 32 33 33 33 33 33 34 34 34 34 34 34 34 34 35 35 34 34 34 34 34 34 34 35 34 34 34 34 34 34 34 34 35 35
31 31 32 31 31 31 31 31 31 32 33 33 33 33 33 34 34 34 34 34 35 35 35 35 35 35 35 35 35 35 35 35 34 34 34 35 35 35 35 35 35 35 36 36
29 30 30 31 31 31 31 32 32 32 33 33 34 34 34 34 35 35 35 35 36 35 35 36 36 36 35 35 35 35 35 35 35 35 35 35 36 36 36 36 36 36 36 36
29 29 30 31 31 32 31 32 32 32 33 33 33 34 34 35 35 35 36 36 36 36 36 36 36 36 36 36 35 35 35 36 36 36 36 36 36 36 36 37 36 36 36 37
29 29 30 30 31 31 31 32 32 33 33 33 33 34 34 35 35 35 35 36 37 37 36 37 37 37 37 37 37 37 37 37 37 37 37 37 37 37 37 37 37 37 37 37
29 30 30 31 31 31 31 32 33 33 33 33 33 34 34 34 35 35 34 34 35 35 36 37 37 37 37 38 38 38 37 37 38 38 38 38 39 38 38 38 38 38 38 38
30 31 31 32 32 32 32 32 33 33 33 33 33 33 33 33 33 34 34 34 34 35 35 36 37 37 38 39 39 38 38 38 38 38 38 38 39 39 40 39 39 39 40 40
Wind_Direction
238 238 240 240 239 238 239 241 242 241 239 239 242 241 240 242 242 242 241 242 244 244 241 239 240 240 241 242 242 243 245 249 252 253 257 262 262 262 264 264 262 266 267 268
240 240 241 241 239 237 239 240 241 239 237 237 238 237 238 241 244 245 245 244 244 242 241 241 242 242 242 245 244 245 247 250 252 253 257 262 265 266 267 268 266 267 268 269
243 243 243 241 238 238 240 239 239 239 236 235 235 235 235 237 240 243 245 244 243 241 241 242 243 244 244 246 248 249 251 253 256 255 259 263 267 269 270 270 269 267 269 271
243 243 245 242 242 241 241 240 239 238 235 233 234 234 234 235 237 240 243 244 243 243 243 243 245 246 246 247 249 251 253 256 259 258 259 261 265 268 272 274 273 272 272 274
244 244 245 244 243 241 241 239 238 236 235 234 233 233 233 235 237 240 243 245 245 243 244 245 246 247 247 249 251 251 254 257 259 257 259 261 263 268 271 275 277 276 274 275
244 245 245 244 243 242 241 238 236 235 233 233 234 231 231 233 236 240 242 244 244 242 244 245 246 246 247 249 251 252 255 257 257 259 261 264 264 267 272 275 277 277 276 276
241 244 245 244 244 242 241 239 236 234 233 233 233 231 230 231 234 239 241 243 243 243 244 245 246 247 248 250 251 252 254 257 259 262 263 264 265 267 270 273 278 278 278 278
240 243 244 243 244 242 240 238 237 235 234 233 234 232 231 230 233 237 240 242 243 244 246 248 249 249 250 251 252 255 256 258 260 262 264 264 265 267 269 273 278 280 280 280
242 242 243 242 241 241 239 237 234 235 235 233 233 233 230 231 234 237 239 241 243 245 247 249 250 251 251 252 254 256 259 260 262 263 265 266 268 269 270 273 278 281 282 282
243 241 242 241 239 237 236 237 236 234 232 232 231 231 231 233 235 237 240 241 243 245 247 250 250 250 251 254 256 259 262 264 264 265 266 267 269 271 275 279 280 281 281 282
242 243 242 241 239 237 236 236 235 232 231 232 233 234 234 234 235 238 241 242 244 246 248 250 249 249 252 255 257 260 262 263 264 266 267 269 271 274 277 280 282 284 283 282
243 242 243 240 240 240 238 237 233 230 230 232 234 235 236 236 238 240 242 243 245 246 249 250 250 250 253 255 258 260 263 264 266 268 268 269 271 274 276 279 281 282 282 283
245 243 242 242 242 241 240 237 234 233 233 234 236 237 238 239 241 242 243 244 245 247 249 251 251 253 255 257 258 260 262 265 267 269 269 270 272 273 275 278 281 282 281 281
245 243 240 240 241 241 239 237 237 237 237 237 237 239 240 240 241 243 245 246 247 247 249 251 252 254 256 259 260 261 262 264 267 268 269 270 272 272 275 278 280 281 280 280
244 243 242 241 242 242 242 241 239 239 240 240 239 239 240 241 242 245 246 247 248 249 250 252 254 255 257 259 261 262 263 266 268 269 270 271 272 274 276 279 280 280 280 280
244 243 243 242 243 244 244 243 243 242 241 242 242 241 241 243 245 246 247 248 248 250 251 252 254 256 257 259 261 263 264 266 268 269 270 272 273 275 277 278 279 279 279 280
244 243 243 243 244 245 244 244 245 244 244 244 245 245 245 246 248 248 249 249 250 251 253 254 255 256 258 260 262 264 265 267 268 270 271 272 273 274 276 277 278 279 280 280
244 244 245 245 245 245 246 246 246 246 245 246 246 246 246 247 248 249 250 250 251 252 253 253 254 257 259 260 262 263 265 267 268 270 271 272 272 273 274 276 277 279 280 280
245 245 246 247 247 247 246 247 247 247 246 246 247 247 248 248 248 249 251 252 252 253 253 255 256 258 260 261 262 263 264 267 269 270 271 271 271 272 274 276 277 279 279 280
246 247 247 247 248 248 248 248 249 249 248 248 247 247 249 250 250 250 252 253 253 254 255 256 257 258 259 260 261 263 265 267 268 269 270 270 271 272 274 275 277 278 280 281
248 248 249 248 247 247 247 248 250 250 249 248 247 248 250 251 251 251 251 252 253 254 256 257 258 259 260 262 264 265 266 268 269 270 270 270 271 273 274 276 277 278 280 282
248 248 248 248 248 249 249 249 250 251 249 248 248 249 250 251 252 252 252 252 254 254 256 257 257 258 260 262 264 264 266 268 270 270 270 271 272 274 275 277 278 279 280 282
249 249 249 248 249 250 249 249 250 250 249 248 249 250 250 251 252 253 253 253 254 255 257 257 258 258 259 261 263 264 265 267 269 270 271 272 273 274 275 276 278 280 281 282
251 251 251 250 250 251 250 249 249 249 249 249 251 252 253 253 253 253 252 252 253 255 256 258 259 260 261 262 263 264 266 268 269 270 271 272 274 276 277 277 278 279 281 282
253 253 251 250 250 250 249 249 249 249 251 251 252 253 254 254 254 255 255 254 253 255 257 258 259 260 260 262 264 265 266 268 270 271 272 273 275 277 279 279 278 279 281 283
252 252 251 250 250 251 251 250 249 250 251 252 254 255 255 255 254 255 256 257 257 256 256 258 260 260 261 263 265 266 267 268 269 271 273 274 276 277 278 279 279 279 280 282
254 253 253 252 251 251 251 250 250 250 251 253 254 256 257 257 257 257 258 259 259 259 260 260 260 262 263 264 265 266 267 269 271 272 274 275 276 277 277 278 278 279 279 280
Height
5809 5811 5812 5814 5816 5818 5820 5823 5825 5828 5830 5831 5832 5833 5835 5835 5836 5838 5839 5840 5841 5842 5843 5844 5845 5847 5848 5848 5849 5851 5851 5852 5853 5854 5854 5854 5855 5855 5855 5856 5856 5856 5856 5856
5803 5804 5806 5808 5810 5812 5815 5817 5820 5822 5825 5826 5827 5829 5830 5832 5833 5834 5835 5837 5838 5839 5840 5841 5842 5843 5844 5845 5846 5847 5848 5849 5849 5850 5850 5851 5851 5851 5852 5852 5852 5852 5852 5852
5797 5799 5800 5802 5805 5807 5809 5812 5814 5816 5820 5821 5822 5824 5826 5827 5829 5830 5832 5833 5834 5835 5836 5837 5838 5840 5841 5842 5843 5843 5844 5845 5846 5846 5846 5847 5847 5848 5848 5848 5848 5848 5848 5848
5791 5793 5794 5799 5799 5801 5803 5806 5808 5810 5813 5815 5817 5819 5821 5823 5825 5826 5828 5829 5830 5831 5833 5834 5835 5836 5837 5838 5839 5840 5841 5841 5842 5842 5843 5843 5844 5844 5844 5844 5843 5843 5843 5843
5785 5787 5789 5792 5793 5795 5797 5800 5802 5804 5807 5809 5811 5814 5816 5818 5820 5822 5823 5825 5826 5827 5828 5830 5831 5832 5833 5834 5835 5836 5837 5837 5838 5838 5839 5839 5840 5840 5840 5839 5839 5839 5838 5838
5779 5781 5783 5787 5787 5789 5792 5794 5796 5798 5801 5803 5806 5809 5812 5813 5815 5817 5819 5820 5822 5823 5824 5826 5827 5828 5829 5830 5831 5832 5832 5833 5834 5834 5835 5835 5835 5835 5835 5835 5834 5834 5833 5833
5772 5774 5777 5780 5781 5783 5786 5789 5790 5791 5794 5797 5800 5803 5806 5807 5810 5812 5813 5815 5817 5818 5820 5821 5822 5823 5824 5825 5826 5827 5828 5829 5829 5830 5830 5830 5830 5830 5830 5830 5829 5829 5828 5827
5766 5768 5772 5773 5775 5777 5779 5781 5783 5785 5788 5791 5794 5796 5799 5802 5804 5806 5808 5810 5812 5813 5815 5816 5818 5819 5820 5821 5822 5822 5823 5824 5824 5825 5825 5825 5825 5825 5825 5824 5824 5823 5822 5822
5760 5763 5764 5766 5768 5770 5772 5774 5777 5779 5782 5785 5788 5791 5793 5796 5798 5801 5803 5805 5807 5808 5810 5811 5812 5814 5815 5816 5816 5817 5818 5818 5819 5819 5819 5819 5820 5819 5819 5819 5818 5817 5816 5816
5752 5755 5757 5759 5761 5763 5765 5768 5770 5773 5776 5779 5782 5785 5788 5790 5793 5795 5797 5799 5801 5803 5804 5806 5807 5808 5809 5810 5811 5812 5812 5813 5813 5813 5814 5814 5814 5813 5813 5813 5812 5811 5810 5809
5746 5748 5750 5752 5754 5757 5759 5761 5763 5766 5770 5773 5776 5779 5781 5784 5787 5789 5791 5793 5795 5796 5798 5799 5801 5802 5803 5804 5805 5806 5806 5807 5807 5808 5808 5808 5807 5807 5807 5806 5806 5805 5804 5803
5739 5742 5744 5746 5748 5750 5752 5754 5757 5760 5763 5766 5769 5772 5775 5777 5780 5782 5785 5786 5788 5790 5791 5793 5794 5796 5797 5798 5799 5800 5800 5801 5801 5801 5801 5801 5801 5801 5800 5800 5799 5797 5796 5795
5732 5734 5737 5739 5741 5743 5745 5748 5751 5753 5756 5759 5762 5765 5768 5770 5773 5775 5777 5779 5781 5783 5784 5786 5787 5789 5790 5791 5792 5793 5793 5794 5794 5794 5794 5794 5794 5793 5793 5792 5791 5790 5789 5788
5724 5727 5729 5731 5734 5736 5738 5741 5743 5746 5749 5752 5755 5757 5760 5763 5765 5768 5770 5772 5773 5775 5777 5779 5780 5782 5783 5784 5785 5785 5786 5786 5786 5786 5786 5786 5786 5786 5785 5784 5784 5782 5781 5780
5717 5719 5722 5724 5726 5729 5731 5733 5736 5738 5741 5744 5747 5749 5752 5755 5757 5760 5762 5764 5765 5767 5769 5771 5773 5774 5775 5776 5777 5777 5778 5778 5779 5779 5778 5778 5778 5777 5777 5776 5775 5774 5773 5771
5709 5711 5713 5716 5718 5721 5723 5725 5728 5730 5733 5735 5738 5741 5743 5746 5749 5751 5753 5755 5757 5759 5761 5763 5764 5766 5767 5768 5768 5769 5769 5770 5770 5770 5770 5769 5769 5769 5768 5767 5766 5765 5764 5762
5701 5703 5706 5708 5710 5712 5714 5717 5719 5721 5724 5726 5729 5732 5734 5737 5739 5742 5744 5746 5748 5750 5752 5754 5755 5756 5757 5759 5759 5760 5760 5761 5761 5761 5761 5760 5760 5759 5759 5758 5757 5756 5754 5753
5692 5695 5697 5699 5701 5703 5705 5707 5710 5712 5714 5717 5719 5722 5724 5727 5729 5732 5734 5736 5738 5740 5742 5743 5745 5746 5748 5749 5749 5750 5751 5751 5751 5751 5751 5750 5750 5749 5749 5748 5747 5746 5744 5743
5683 5685 5688 5690 5692 5694 5696 5698 5700 5702 5704 5707 5709 5712 5714 5716 5719 5721 5723 5726 5728 5730 5732 5733 5735 5736 5737 5738 5739 5740 5740 5740 5741 5741 5740 5740 5740 5739 5738 5738 5736 5735 5734 5732
5674 5676 5678 5680 5683 5685 5687 5689 5691 5693 5695 5697 5699 5702 5704 5706 5708 5710 5712 5714 5716 5719 5721 5722 5724 5725 5726 5727 5728 5729 5729 5729 5729 5729 5729 5729 5729 5728 5728 5727 5726 5724 5723 5721
5665 5667 5669 5671 5673 5675 5677 5679 5681 5683 5685 5687 5689 5691 5693 5695 5697 5699 5701 5703 5705 5707 5709 5711 5712 5714 5715 5716 5717 5717 5718 5718 5718 5718 5718 5718 5718 5717 5717 5716 5714 5713 5712 5710
5655 5657 5659 5661 5663 5665 5667 5669 5671 5672 5674 5676 5678 5680 5682 5684 5686 5688 5689 5692 5694 5696 5697 5699 5701 5702 5703 5704 5705 5706 5707 5707 5707 5707 5707 5707 5706 5706 5705 5704 5703 5702 5700 5699
5645 5647 5649 5651 5653 5655 5657 5659 5661 5662 5664 5666 5668 5670 5671 5673 5675 5677 5679 5681 5683 5684 5686 5688 5689 5690 5692 5693 5694 5694 5695 5695 5695 5696 5695 5695 5695 5694 5694 5693 5692 5690 5689 5687
5636 5637 5639 5641 5643 5645 5647 5649 5650 5652 5654 5656 5658 5659 5661 5663 5664 5666 5667 5670 5671 5673 5675 5676 5678 5679 5680 5681 5682 5683 5683 5684 5684 5684 5684 5683 5683 5682 5681 5680 5679 5678 5677 5675
5626 5627 5629 5631 5633 5635 5637 5639 5640 5642 5644 5646 5648 5649 5651 5652 5654 5655 5657 5658 5660 5662 5663 5665 5666 5668 5669 5670 5670 5671 5671 5672 5672 5672 5672 5671 5671 5670 5669 5668 5667 5666 5665 5663
5616 5618 5619 5621 5623 5625 5627 5628 5630 5632 5634 5636 5637 5639 5640 5642 5643 5645 5646 5648 5649 5650 5652 5653 5654 5655 5656 5657 5658 5659 5659 5659 5659 5659 5659 5658 5658 5658 5657 5656 5655 5654 5652 5651
5606 5608 5609 5611 5613 5615 5616 5618 5620 5622 5624 5626 5627 5629 5630 5631 5633 5634 5636 5637 5638 5639 5640 5641 5642 5643 5644 5645 5645 5646 5646 5646 5647 5646 5646 5646 5645 5645 5644 5643 5642 5641 5639 5638